Weather History for Show Low, AZ

Change the Weather History Date:

Saturday, October 20, 2012

  Actual Average Record
Temperature  
Mean Temperature 56 °F -  
Max Temperature 71 °F 62 °F 77 °F (2003)
Min Temperature 41 °F 40 °F 25 °F (1967)
Degree Days  
Heating Degree Days 9    
Growing Degree Days 6 (Base 50)    
Moisture  
Dew Point 28 °F    
Average Humidity 34    
Maximum Humidity 54    
Minimum Humidity 21    
Precipitation  
Precipitation 0.00 in - - ()
Sea Level Pressure  
Sea Level Pressure 30.09 in    
Wind  
Wind Speed 8 mph (SSW)    
Max Wind Speed 18 mph    
Max Gust Speed 26 mph    
Visibility 10 miles    
Events      
Averages and records for this station are not official NWS values.
T = Trace of Precipitation, MM = Missing Value Source: NWS Daily Summary

Daily Weather History Graph

Daily Weather History Graph

Search for Another Location

Airport:

Trip Planner

Search our weather history database for the weather conditions in past years. The results will help you decide how hot, cold, wet, or windy it might be!

Date:

Astronomy

Oct. 20, 2012 Rise Set
Actual Time 6:29 AM MST 5:38 PM MST
Civil Twilight 6:04 AM MST 6:04 PM MST
Nautical Twilight 5:35 AM MST 6:33 PM MST
Astronomical Twilight 5:06 AM MST 7:02 PM MST
Moon 12:01 PM MST 10:35 PM MST
Length of Visible Light 11h 59m
Length of Day
11h 09m
Waxing Crescent, 35% of the Moon is Illuminated
Oct 20
Waxing Crescent
Oct 21
First Quarter
Oct 29
Full
Nov 6
Last Quarter
Nov 13
New

Hourly Weather History & Observations

Time (MST) Temp. Windchill Dew Point Humidity Pressure Visibility Wind Dir Wind Speed Gust Speed Precip Events Conditions
12:15 AM 48.2 °F - 17.6 °F 30% 30.14 in 10.0 mi SSW 3.5 mph - N/A   Clear
12:35 AM 46.4 °F 43.5 °F 17.6 °F 32% 30.14 in 10.0 mi South 5.8 mph - N/A   Clear
12:55 AM 44.6 °F 42.2 °F 19.4 °F 37% 30.14 in 10.0 mi SSW 4.6 mph - N/A   Clear
1:15 AM 46.4 °F 45.2 °F 19.4 °F 34% 30.14 in 10.0 mi SW 3.5 mph - N/A   Clear
1:35 AM 46.4 °F 43.5 °F 19.4 °F 34% 30.14 in 10.0 mi South 5.8 mph - N/A   Clear
1:55 AM 44.6 °F 41.4 °F 19.4 °F 37% 30.13 in 10.0 mi South 5.8 mph - N/A   Clear
2:15 AM 44.6 °F 41.4 °F 19.4 °F 37% 30.13 in 10.0 mi South 5.8 mph - N/A   Clear
2:35 AM 44.6 °F 42.2 °F 19.4 °F 37% 30.12 in 10.0 mi South 4.6 mph - N/A   Clear
2:55 AM 42.8 °F 39.3 °F 19.4 °F 39% 30.12 in 10.0 mi South 5.8 mph - N/A   Clear
3:15 AM 41.0 °F 39.0 °F 19.4 °F 42% 30.11 in 10.0 mi SSE 3.5 mph - N/A   Clear
3:35 AM 41.0 °F 37.1 °F 21.2 °F 45% 30.11 in 10.0 mi South 5.8 mph - N/A   Clear
3:55 AM 41.0 °F 38.0 °F 19.4 °F 42% 30.11 in 10.0 mi South 4.6 mph - N/A   Clear
4:15 AM 44.6 °F 41.4 °F 19.4 °F 37% 30.11 in 10.0 mi South 5.8 mph - N/A   Clear
4:35 AM 46.4 °F 42.9 °F 19.4 °F 34% 30.11 in 10.0 mi South 6.9 mph - N/A   Clear
4:55 AM 44.6 °F 41.4 °F 19.4 °F 37% 30.11 in 10.0 mi SSW 5.8 mph - N/A   Clear
5:15 AM 42.8 °F 39.3 °F 21.2 °F 42% 30.11 in 10.0 mi SSW 5.8 mph - N/A   Clear
5:35 AM 46.4 °F 43.5 °F 19.4 °F 34% 30.11 in 10.0 mi South 5.8 mph - N/A   Clear
5:55 AM 48.2 °F - 19.4 °F 32% 30.11 in 10.0 mi South 6.9 mph - N/A   Clear
6:15 AM 46.4 °F 41.9 °F 19.4 °F 34% 30.11 in 10.0 mi South 9.2 mph - N/A   Clear
6:35 AM 48.2 °F - 19.4 °F 32% 30.11 in 10.0 mi South 9.2 mph - N/A   Clear
6:55 AM 50.0 °F - 19.4 °F 30% 30.12 in 10.0 mi South 8.1 mph - N/A   Clear
7:15 AM 50.0 °F - 21.2 °F 32% 30.12 in 10.0 mi South 9.2 mph - N/A   Clear
7:35 AM 53.6 °F - 23.0 °F 30% 30.12 in 10.0 mi South 6.9 mph - N/A   Clear
7:55 AM 57.2 °F - 23.0 °F 27% 30.13 in 10.0 mi South 8.1 mph - N/A   Clear
8:15 AM 60.8 °F - 24.8 °F 25% 30.13 in 10.0 mi South 8.1 mph - N/A   Clear
8:35 AM 62.6 °F - 24.8 °F 24% 30.13 in 10.0 mi South 6.9 mph - N/A   Clear
8:55 AM 66.2 °F - 24.8 °F 21% 30.13 in 10.0 mi SSW 8.1 mph - N/A   Clear
9:15 AM 66.2 °F - 24.8 °F 21% 30.13 in 10.0 mi WSW 9.2 mph - N/A   Clear
9:35 AM 68.0 °F - 28.4 °F 23% 30.13 in 10.0 mi WSW 9.2 mph - N/A   Clear
9:55 AM 68.0 °F - 32.0 °F 26% 30.13 in 10.0 mi WSW 9.2 mph - N/A   Clear
10:15 AM 68.0 °F - 33.8 °F 28% 30.12 in 10.0 mi West 6.9 mph - N/A   Clear
10:35 AM 69.8 °F - 37.4 °F 31% 30.12 in 10.0 mi WSW 6.9 mph 19.6 mph N/A   Clear
10:55 AM 68.0 °F - 35.6 °F 30% 30.11 in 10.0 mi SW 11.5 mph 17.3 mph N/A   Clear
11:15 AM 69.8 °F - 35.6 °F 28% 30.10 in 10.0 mi SSW 12.7 mph - N/A   Clear
11:35 AM 68.0 °F - 35.6 °F 30% 30.10 in 10.0 mi SW 10.4 mph 18.4 mph N/A   Clear
11:55 AM 69.8 °F - 35.6 °F 28% 30.09 in 10.0 mi SW 13.8 mph 20.7 mph N/A   Clear
12:15 PM 69.8 °F - 33.8 °F 27% 30.08 in 10.0 mi SSW 15.0 mph 20.7 mph N/A   Clear
12:35 PM 69.8 °F - 32.0 °F 25% 30.07 in 10.0 mi WSW 12.7 mph - N/A   Clear
12:55 PM 71.6 °F - 32.0 °F 23% 30.06 in 10.0 mi SW 16.1 mph - N/A   Clear
1:15 PM 69.8 °F - 32.0 °F 25% 30.06 in 10.0 mi SW 15.0 mph 26.5 mph N/A   Clear
1:35 PM 69.8 °F - 32.0 °F 25% 30.05 in 10.0 mi SW 16.1 mph 24.2 mph N/A   Clear
1:55 PM 69.8 °F - 32.0 °F 25% 30.05 in 10.0 mi SW 18.4 mph 24.2 mph N/A   Clear
2:15 PM 69.8 °F - 32.0 °F 25% 30.04 in 10.0 mi SSW 17.3 mph 26.5 mph N/A   Clear
2:35 PM 69.8 °F - 32.0 °F 25% 30.04 in 10.0 mi WSW 13.8 mph 26.5 mph N/A   Clear
2:55 PM 68.0 °F - 32.0 °F 26% 30.03 in 10.0 mi SW 17.3 mph 25.3 mph N/A   Clear
3:15 PM 68.0 °F - 32.0 °F 26% 30.03 in 10.0 mi SW 12.7 mph 25.3 mph N/A   Clear
3:35 PM 68.0 °F - 32.0 °F 26% 30.03 in 10.0 mi SW 11.5 mph 23.0 mph N/A   Clear
3:55 PM 68.0 °F - 32.0 °F 26% 30.03 in 10.0 mi SW 15.0 mph 21.9 mph N/A   Clear
4:15 PM 68.0 °F - 32.0 °F 26% 30.03 in 10.0 mi SW 15.0 mph 24.2 mph N/A   Clear
4:35 PM 66.2 °F - 32.0 °F 28% 30.03 in 10.0 mi SW 13.8 mph 20.7 mph N/A   Clear
4:55 PM 64.4 °F - 32.0 °F 30% 30.03 in 10.0 mi SW 13.8 mph 21.9 mph N/A   Clear
5:15 PM 64.4 °F - 32.0 °F 30% 30.03 in 10.0 mi WSW 15.0 mph 19.6 mph N/A   Clear
5:35 PM 62.6 °F - 32.0 °F 32% 30.04 in 10.0 mi SW 12.7 mph 19.6 mph N/A   Clear
5:55 PM 60.8 °F - 32.0 °F 34% 30.04 in 10.0 mi SW 8.1 mph - N/A   Clear
6:15 PM 59.0 °F - 32.0 °F 36% 30.04 in 10.0 mi SW 12.7 mph - N/A   Clear
6:35 PM 59.0 °F - 32.0 °F 36% 30.05 in 10.0 mi SW 9.2 mph - N/A   Clear
6:55 PM 57.2 °F - 33.8 °F 41% 30.06 in 10.0 mi SW 9.2 mph - N/A   Clear
7:15 PM 57.2 °F - 33.8 °F 41% 30.06 in 10.0 mi SW 9.2 mph - N/A   Clear
7:35 PM 57.2 °F - 33.8 °F 41% 30.06 in 10.0 mi SW 8.1 mph - N/A   Clear
7:55 PM 55.4 °F - 33.8 °F 44% 30.06 in 10.0 mi SW 9.2 mph - N/A   Clear
8:15 PM 55.4 °F - 33.8 °F 44% 30.06 in 10.0 mi SW 8.1 mph - N/A   Clear
8:35 PM 53.6 °F - 32.0 °F 44% 30.07 in 10.0 mi SW 8.1 mph - N/A   Clear
8:55 PM 53.6 °F - 32.0 °F 44% 30.07 in 10.0 mi SSW 6.9 mph - N/A   Clear
9:15 PM 51.8 °F - 32.0 °F 47% 30.07 in 10.0 mi SW 6.9 mph - N/A   Clear
9:35 PM 50.0 °F - 32.0 °F 50% 30.06 in 10.0 mi SSW 8.1 mph - N/A   Clear
9:55 PM 50.0 °F - 32.0 °F 50% 30.06 in 10.0 mi SSW 6.9 mph - N/A   Clear
10:15 PM 50.0 °F - 32.0 °F 50% 30.06 in 10.0 mi SW 5.8 mph - N/A   Clear
10:35 PM 50.0 °F - 32.0 °F 50% 30.06 in 10.0 mi WSW 5.8 mph - N/A   Clear
10:55 PM 48.2 °F - 32.0 °F 54% 30.06 in 10.0 mi SW 4.6 mph - N/A   Clear
11:15 PM 48.2 °F - 32.0 °F 54% 30.06 in 10.0 mi South 4.6 mph - N/A   Clear
11:35 PM 50.0 °F - 32.0 °F 50% 30.07 in 10.0 mi SSW 3.5 mph - N/A   Clear
11:55 PM 48.2 °F - 32.0 °F 54% 30.06 in 10.0 mi SSW 4.6 mph - N/A   Partly Cloudy